User: anonymous   Login
Location: Unspecified
(0.0000°N, 0.0000°E)
Time: 11:31:07
(UTC+00:00)
Language:

RASAT - Orbit

View from above orbital plane
View from above orbital plane
View from above satellite
View from above satellite

Ground track
Ground track

The orbit data is extracted from the following two-line orbital elements,

1 37791U 11044D   21016.15869071 -.00000004  00000-0  83038-5 0  9996
2 37791  98.1077 112.0003 0021131 323.2544  36.7219 14.64806095503389
Epoch (UTC): 16 January 2021 03:48:30
Eccentricity: 0.0021131
inclination: 98.1077°
perigee height: 663 km
apogee height: 692 km
right ascension of ascending node: 112.0003°
argument of perigee: 323.2544°
revolutions per day: 14.64806095
mean anomaly at epoch: 36.7219°
orbit number at epoch: 50338

The dashed part of the orbit path shows where the satellite is in the earth's shadow,  

DLR